{"data":{"norad_id":67415,"intl_designator":"2026-005M","name":"STARLINK-36468","alt_names":[],"object_type":"PAYLOAD","status":"ACTIVE","operator":null,"country":"US","launch_date":"2026-01-12","launch_site_code":"AFETR","launch_vehicle":null,"mission":null,"orbit_class":"UNKNOWN","rcs_meters":null,"size_class":null,"mass_kg":null,"dimensions":null,"purposes":["comms"],"wikipedia_slug":null,"has_3d_model":false,"image_url":null,"decayed_at":null,"tle_current":{"epoch":"2026-09-19T07:20:30.337152Z","epoch_age_seconds":178490,"freshness":"STALE","line1":"1 67415U 26005M   26262.30590668  .00007106  00000+0  26745-3 0  9991","line2":"2 67415  43.0008 224.8808 0001462 272.4405  87.6279 15.27585804 38307","mean_motion":15.27585804,"eccentricity":0.0001462,"inclination_deg":43.0008,"raan_deg":224.8808,"arg_perigee_deg":272.4405,"mean_anomaly_deg":87.6279,"bstar":0.00026745,"rev_number":3830,"period_min":94.266390550982,"perigee_km":482.0286139643,"apogee_km":484.0348196971,"semimajor_km":6861.1687168307,"source":"CELESTRAK","updated_at":"2026-09-20T09:00:43.521239Z"}}}